Simultaneous Nadir Overpasses (SNOs) Predictions

Prediction of SNOs between AURA and NPP Satellite Orbit:

Table of predicted SNOs for the next 14.0 days since TLE Epoch: 9/12/2014
Index Date (AURA) Time (AURA) Lat,Lon (AURA) SZA (AURA ) Date (NPP) Time (NPP) Lat,Lon (NPP) SZA (NPP ) Distance(km) Time Diff (sec)
1 09/13/2014 14:13:28 75.79,-152.83 93.17 09/13/2014 14:13:15 75.79,-152.79 93.16 1.46 13
2 09/13/2014 15:02:38 -76.63, 17.52 87.78 09/13/2014 15:03:42 -76.63, 17.50 87.83 0.40 64
3 09/16/2014 05:40:47 -74.91, 152.99 84.95 09/16/2014 05:39:45 -74.91, 152.99 84.89 0.12 62
4 09/16/2014 06:29:46 76.22, -35.61 93.63 09/16/2014 06:30:01 76.23, -35.52 93.60 2.66 15
5 09/18/2014 21:57:06 -75.32, -90.03 84.44 09/18/2014 21:56:33 -75.32, -90.05 84.40 0.48 33
6 09/18/2014 22:46:07 76.52, 81.26 94.26 09/18/2014 22:46:51 76.53, 81.33 94.20 2.17 44
7 09/21/2014 13:29:31 57.09,-163.53 113.93 09/21/2014 13:28:19 57.30,-164.94 114.43 87.95 72
8 09/21/2014 14:13:27 -75.59, 26.61 83.77 09/21/2014 14:13:24 -75.58, 26.53 83.74 2.68 3
9 09/21/2014 15:02:14 77.43,-159.49 94.18 09/21/2014 15:03:28 77.38,-159.40 94.12 6.03 74
10 09/24/2014 05:40:36 75.04, -26.64 97.78 09/24/2014 05:39:46 75.04, -26.63 97.82 0.32 50




NCC Satellite Simultaneous Nadir Overpasses (SNOs) Prediction Service
